History for Miami, FL

Wednesday, January 2, 2013 — View Current Conditions

Jump to Data:

Date:
Airport Code:
Recently Viewed Airport Codes: KMIA
Daily Summary
  Actual Average Record
Temperature
Mean Temperature 73°F 68°F  
Max Temperature 81°F 76°F 86°F (1996)
Min Temperature 65°F 60°F 38°F (1898)
Degree Days
Heating Degree Days 0 2  
Month to date heating degree days 0 4  
Since 1 July heating degree days 16 41  
Cooling Degree Days 8 5  
Month to date cooling degree days 16 10  
Year to date cooling degree days 16 10  
Growing Degree Days 22 (Base 50)    
Moisture
Dew Point 65°F    
Average Humidity 75    
Maximum Humidity 87    
Minimum Humidity 62    
Precipitation
Precipitation 0.00 in 0.05 in 1.69 in (1958)
Month to date precipitation 0.00 0.10  
Year to date precipitation 0.00 0.10  
Snow
Snow 0.00 in in in ()
Month to date snowfall 0.0  
Since 1 July snowfall 0.0  
Snow Depth 0.00 in    
Sea Level Pressure
Sea Level Pressure 30.06 in    
Wind
Wind Speed 4 mph (SSE)    
Max Wind Speed 13 mph    
Max Gust Speed 21 mph    
Visibility 10 miles    
Events      
T = Trace of Precipitation, MM = Missing Value Source: NWS Daily Summary

Show full METARS

(help) - Comma Delimited File

Hourly Observations

Time(EST) Temperature Dew Point Humidity Sea Level Pressure Visibility Wind Direction Wind Speed Gust Speed Precipitation Events Conditions
12:53 AM 66.0°F 62.1°F 87% 30.06 in 10.0 miles ESE 3.5 mph - N/A   Partly Cloudy
1:53 AM 66.9°F 62.1°F 84% 30.06 in 10.0 miles Calm Calm - N/A   Partly Cloudy
2:53 AM 66.9°F 62.1°F 84% 30.05 in 10.0 miles Calm Calm - N/A   Clear
3:53 AM 64.9°F 61.0°F 87% 30.06 in 10.0 miles Calm Calm - N/A   Clear
4:53 AM 66.0°F 62.1°F 87% 30.06 in 10.0 miles Calm Calm - N/A   Partly Cloudy
5:53 AM 66.9°F 63.0°F 87% 30.07 in 10.0 miles Calm Calm - N/A   Scattered Clouds
6:53 AM 68.0°F 62.6°F 83% 30.08 in 10.0 miles Calm Calm - N/A   Partly Cloudy
7:53 AM 69.1°F 64.9°F 87% 30.09 in 10.0 miles Calm Calm - N/A   Partly Cloudy
8:53 AM 73.9°F 64.9°F 73% 30.10 in 10.0 miles SSE 4.6 mph - N/A   Partly Cloudy
9:53 AM 75.9°F 64.9°F 69% 30.12 in 10.0 miles SE 6.9 mph - N/A   Scattered Clouds
10:53 AM 75.9°F 64.0°F 67% 30.11 in 10.0 miles Variable 6.9 mph - N/A   Mostly Cloudy
11:53 AM 79.0°F 64.9°F 62% 30.08 in 10.0 miles SE 6.9 mph - N/A   Mostly Cloudy
12:53 PM 79.0°F 64.0°F 60% 30.05 in 10.0 miles Variable 6.9 mph - N/A   Mostly Cloudy
1:53 PM 79.0°F 64.0°F 60% 30.03 in 10.0 miles SE 9.2 mph - N/A   Mostly Cloudy
2:53 PM 79.0°F 64.0°F 60% 30.02 in 10.0 miles ESE 6.9 mph - N/A   Mostly Cloudy
3:53 PM 79.0°F 64.9°F 62% 30.02 in 10.0 miles SSE 8.1 mph - N/A   Mostly Cloudy
4:53 PM 77.0°F 66.0°F 69% 30.03 in 10.0 miles SSE 9.2 mph - N/A   Scattered Clouds
5:53 PM 75.0°F 66.9°F 76% 30.04 in 10.0 miles SSE 6.9 mph - N/A   Scattered Clouds
6:53 PM 73.9°F 66.9°F 79% 30.05 in 10.0 miles SSE 5.8 mph - N/A   Mostly Cloudy
7:53 PM 73.0°F 66.9°F 81% 30.06 in 10.0 miles Variable 4.6 mph - N/A   Scattered Clouds
8:53 PM 73.0°F 66.9°F 81% 30.07 in 10.0 miles Calm Calm - N/A   Scattered Clouds
9:53 PM 73.9°F 66.9°F 79% 30.08 in 10.0 miles South 3.5 mph - N/A   Mostly Cloudy
10:53 PM 73.0°F 66.9°F 81% 30.08 in 10.0 miles SSE 3.5 mph - N/A   Scattered Clouds
11:53 PM 73.0°F 66.9°F 81% 30.07 in 10.0 miles Calm Calm - N/A   Mostly Cloudy